Year,Month,Day,Hour,Minute,Value (Times are PST for temperature in C)
2021,06,29,00,00,27.80
2021,06,29,00,01,27.70
2021,06,29,00,02,27.70
2021,06,29,00,03,27.70
2021,06,29,00,04,27.70
2021,06,29,00,05,27.70
2021,06,29,00,06,27.70
2021,06,29,00,07,27.70
2021,06,29,00,08,27.60
2021,06,29,00,09,27.60
2021,06,29,00,10,27.60
2021,06,29,00,11,27.60
2021,06,29,00,12,27.60
2021,06,29,00,13,27.50
2021,06,29,00,14,27.50
2021,06,29,00,15,27.50
2021,06,29,00,16,27.50
2021,06,29,00,17,27.40
2021,06,29,00,18,27.40
2021,06,29,00,19,27.40
2021,06,29,00,20,27.40
2021,06,29,00,21,27.40
2021,06,29,00,22,27.30
2021,06,29,00,23,27.30
2021,06,29,00,24,27.30
2021,06,29,00,25,27.30
2021,06,29,00,26,27.20
2021,06,29,00,27,27.20
2021,06,29,00,28,27.20
2021,06,29,00,29,27.20
2021,06,29,00,30,27.20
2021,06,29,00,31,27.20
2021,06,29,00,32,27.20
2021,06,29,00,33,27.10
2021,06,29,00,34,27.10
2021,06,29,00,35,27.10
2021,06,29,00,36,27.10
2021,06,29,00,37,27.10
2021,06,29,00,38,27.10
2021,06,29,00,39,27.10
2021,06,29,00,40,27.00
2021,06,29,00,41,27.00
2021,06,29,00,42,27.00
2021,06,29,00,43,27.00
2021,06,29,00,44,26.90
2021,06,29,00,45,26.90
2021,06,29,00,46,26.90
2021,06,29,00,47,26.90
2021,06,29,00,48,26.90
2021,06,29,00,49,26.80
2021,06,29,00,50,26.80
2021,06,29,00,51,26.80
2021,06,29,00,52,26.80
2021,06,29,00,53,26.80
2021,06,29,00,54,26.80
2021,06,29,00,55,26.80
2021,06,29,00,56,26.80
2021,06,29,00,57,26.70
2021,06,29,00,58,26.70
2021,06,29,00,59,26.70
2021,06,29,01,00,26.70
2021,06,29,01,01,26.70
2021,06,29,01,02,26.70
2021,06,29,01,03,26.60
2021,06,29,01,04,26.60
2021,06,29,01,05,26.60
2021,06,29,01,06,26.60
2021,06,29,01,07,26.50
2021,06,29,01,08,26.50
2021,06,29,01,09,26.50
2021,06,29,01,10,26.40
2021,06,29,01,11,26.40
2021,06,29,01,12,26.40
2021,06,29,01,13,26.40
2021,06,29,01,14,26.30
2021,06,29,01,15,26.30
2021,06,29,01,16,26.30
2021,06,29,01,17,26.30
2021,06,29,01,18,26.30
2021,06,29,01,19,26.30
2021,06,29,01,20,26.20
2021,06,29,01,21,26.20
2021,06,29,01,22,26.20
2021,06,29,01,23,26.20
2021,06,29,01,24,26.20
2021,06,29,01,25,26.20
2021,06,29,01,26,26.20
2021,06,29,01,27,26.20
2021,06,29,01,28,26.20
2021,06,29,01,29,26.20
2021,06,29,01,30,26.10
2021,06,29,01,31,26.10
2021,06,29,01,32,26.10
2021,06,29,01,33,26.10
2021,06,29,01,34,26.10
2021,06,29,01,35,26.10
2021,06,29,01,36,26.10
2021,06,29,01,37,26.10
2021,06,29,01,38,26.10
2021,06,29,01,39,26.10
2021,06,29,01,40,26.10
2021,06,29,01,41,26.10
2021,06,29,01,42,26.00
2021,06,29,01,43,26.00
2021,06,29,01,44,26.00
2021,06,29,01,45,26.00
2021,06,29,01,46,26.00
2021,06,29,01,47,26.00
2021,06,29,01,48,25.90
2021,06,29,01,49,25.90
2021,06,29,01,50,25.90
2021,06,29,01,51,25.90
2021,06,29,01,52,25.90
2021,06,29,01,53,25.90
2021,06,29,01,54,25.90
2021,06,29,01,55,25.90
2021,06,29,01,56,25.90
2021,06,29,01,57,25.90
2021,06,29,01,58,25.90
2021,06,29,01,59,25.80
2021,06,29,02,00,25.80
2021,06,29,02,01,25.80
2021,06,29,02,02,25.80
2021,06,29,02,03,25.80
2021,06,29,02,04,25.80
2021,06,29,02,05,25.80
2021,06,29,02,06,25.70
2021,06,29,02,07,25.70
2021,06,29,02,08,25.70
2021,06,29,02,09,25.70
2021,06,29,02,10,25.70
2021,06,29,02,11,25.70
2021,06,29,02,12,25.70
2021,06,29,02,13,25.70
2021,06,29,02,14,25.70
2021,06,29,02,15,25.70
2021,06,29,02,16,25.70
2021,06,29,02,17,25.60
2021,06,29,02,18,25.60
2021,06,29,02,19,25.60
2021,06,29,02,20,25.60
2021,06,29,02,21,25.60
2021,06,29,02,22,25.60
2021,06,29,02,23,25.50
2021,06,29,02,24,25.50
2021,06,29,02,25,25.50
2021,06,29,02,26,25.50
2021,06,29,02,27,25.40
2021,06,29,02,28,25.40
2021,06,29,02,29,25.40
2021,06,29,02,30,25.40
2021,06,29,02,31,25.40
2021,06,29,02,32,25.40
2021,06,29,02,33,25.40
2021,06,29,02,34,25.40
2021,06,29,02,35,25.40
2021,06,29,02,36,25.40
2021,06,29,02,37,25.40
2021,06,29,02,38,25.40
2021,06,29,02,39,25.40
2021,06,29,02,40,25.40
2021,06,29,02,41,25.40
2021,06,29,02,42,25.40
2021,06,29,02,43,25.40
2021,06,29,02,44,25.40
2021,06,29,02,45,25.40
2021,06,29,02,46,25.40
2021,06,29,02,47,25.40
2021,06,29,02,48,25.40
2021,06,29,02,49,25.40
2021,06,29,02,50,25.40
2021,06,29,02,51,25.40
2021,06,29,02,52,25.30
2021,06,29,02,53,25.30
2021,06,29,02,54,25.30
2021,06,29,02,55,25.30
2021,06,29,02,56,25.30
2021,06,29,02,57,25.30
2021,06,29,02,58,25.20
2021,06,29,02,59,25.20
2021,06,29,03,00,25.20
2021,06,29,03,01,25.20
2021,06,29,03,02,25.20
2021,06,29,03,03,25.10
2021,06,29,03,04,25.10
2021,06,29,03,05,25.10
2021,06,29,03,06,25.10
2021,06,29,03,07,25.00
2021,06,29,03,08,25.00
2021,06,29,03,09,25.00
2021,06,29,03,10,24.90
2021,06,29,03,11,24.90
2021,06,29,03,12,24.90
2021,06,29,03,13,24.90
2021,06,29,03,14,24.90
2021,06,29,03,15,24.90
2021,06,29,03,16,24.90
2021,06,29,03,17,24.90
2021,06,29,03,18,24.90
2021,06,29,03,19,24.90
2021,06,29,03,20,24.80
2021,06,29,03,21,24.80
2021,06,29,03,22,24.80
2021,06,29,03,23,24.80
2021,06,29,03,24,24.80
2021,06,29,03,25,24.80
2021,06,29,03,26,24.70
2021,06,29,03,27,24.70
2021,06,29,03,28,24.70
2021,06,29,03,29,24.70
2021,06,29,03,30,24.70
2021,06,29,03,31,24.70
2021,06,29,03,32,24.70
2021,06,29,03,33,24.70
2021,06,29,03,34,24.60
2021,06,29,03,35,24.60
2021,06,29,03,36,24.60
2021,06,29,03,37,24.60
2021,06,29,03,38,24.60
2021,06,29,03,39,24.60
2021,06,29,03,40,24.60
2021,06,29,03,41,24.50
2021,06,29,03,42,24.50
2021,06,29,03,43,24.50
2021,06,29,03,44,24.50
2021,06,29,03,45,24.40
2021,06,29,03,46,24.40
2021,06,29,03,47,24.40
2021,06,29,03,48,24.40
2021,06,29,03,49,24.40
2021,06,29,03,50,24.40
2021,06,29,03,51,24.30
2021,06,29,03,52,24.30
2021,06,29,03,53,24.30
2021,06,29,03,54,24.30
2021,06,29,03,55,24.30
2021,06,29,03,56,24.30
2021,06,29,03,57,24.20
2021,06,29,03,58,24.20
2021,06,29,03,59,24.20
2021,06,29,04,00,24.20
2021,06,29,04,01,24.20
2021,06,29,04,02,24.20
2021,06,29,04,03,24.20
2021,06,29,04,04,24.10
2021,06,29,04,05,24.10
2021,06,29,04,06,24.10
2021,06,29,04,07,24.10
2021,06,29,04,08,24.10
2021,06,29,04,09,24.10
2021,06,29,04,10,24.00
2021,06,29,04,11,24.00
2021,06,29,04,12,24.00
2021,06,29,04,13,24.00
2021,06,29,04,14,23.90
2021,06,29,04,15,23.90
2021,06,29,04,16,23.90
2021,06,29,04,17,23.90
2021,06,29,04,18,23.90
2021,06,29,04,19,23.80
2021,06,29,04,20,23.80
2021,06,29,04,21,23.80
2021,06,29,04,22,23.80
2021,06,29,04,23,23.80
2021,06,29,04,24,23.80
2021,06,29,04,25,23.70
2021,06,29,04,26,23.70
2021,06,29,04,27,23.70
2021,06,29,04,28,23.70
2021,06,29,04,29,23.70
2021,06,29,04,30,23.70
2021,06,29,04,31,23.70
2021,06,29,04,32,23.70
2021,06,29,04,33,23.70
2021,06,29,04,34,23.70
2021,06,29,04,35,23.70
2021,06,29,04,36,23.70
2021,06,29,04,37,23.70
2021,06,29,04,38,23.60
2021,06,29,04,39,23.60
2021,06,29,04,40,23.60
2021,06,29,04,41,23.60
2021,06,29,04,42,23.60
2021,06,29,04,43,23.60
2021,06,29,04,44,23.60
2021,06,29,04,45,23.60
2021,06,29,04,46,23.60
2021,06,29,04,47,23.50
2021,06,29,04,48,23.50
2021,06,29,04,49,23.50
2021,06,29,04,50,23.40
2021,06,29,04,51,23.40
2021,06,29,04,52,23.40
2021,06,29,04,53,23.40
2021,06,29,04,54,23.40
2021,06,29,04,55,23.40
2021,06,29,04,56,23.30
2021,06,29,04,57,23.30
2021,06,29,04,58,23.30
2021,06,29,04,59,23.30
2021,06,29,05,00,23.30
2021,06,29,05,01,23.30
2021,06,29,05,02,23.30
2021,06,29,05,03,23.30
2021,06,29,05,04,23.30
2021,06,29,05,05,23.30
2021,06,29,05,06,23.30
2021,06,29,05,07,23.30
2021,06,29,05,08,23.30
2021,06,29,05,09,23.30
2021,06,29,05,10,23.30
2021,06,29,05,11,23.30
2021,06,29,05,12,23.30
2021,06,29,05,13,23.30
2021,06,29,05,14,23.30
2021,06,29,05,15,23.30
2021,06,29,05,16,23.30
2021,06,29,05,17,23.30
2021,06,29,05,18,23.30
2021,06,29,05,19,23.30
2021,06,29,05,20,23.20
2021,06,29,05,21,23.20
2021,06,29,05,22,23.20
2021,06,29,05,23,23.20
2021,06,29,05,24,23.20
2021,06,29,05,25,23.10
2021,06,29,05,26,23.10
2021,06,29,05,27,23.10
2021,06,29,05,28,23.10
2021,06,29,05,29,23.10
2021,06,29,05,30,23.10
2021,06,29,05,31,23.10
2021,06,29,05,32,23.10
2021,06,29,05,33,23.00
2021,06,29,05,34,23.00
2021,06,29,05,35,23.00
2021,06,29,05,36,23.00
2021,06,29,05,37,23.00
2021,06,29,05,38,22.90
2021,06,29,05,39,22.90
2021,06,29,05,40,22.90
2021,06,29,05,41,22.90
2021,06,29,05,42,22.90
2021,06,29,05,43,22.90
2021,06,29,05,44,22.90
2021,06,29,05,45,22.90
2021,06,29,05,46,22.90
2021,06,29,05,47,22.90
2021,06,29,05,48,22.90
2021,06,29,05,49,22.80
2021,06,29,05,50,22.80
2021,06,29,05,51,22.80
2021,06,29,05,52,22.80
2021,06,29,05,53,22.80
2021,06,29,05,54,22.80
2021,06,29,05,55,22.80
2021,06,29,05,56,22.80
2021,06,29,05,57,22.80
2021,06,29,05,58,22.80
2021,06,29,05,59,22.80
2021,06,29,06,00,22.80
2021,06,29,06,01,22.80
2021,06,29,06,02,22.80
2021,06,29,06,03,22.80
2021,06,29,06,04,22.80
2021,06,29,06,05,22.90
2021,06,29,06,06,22.90
2021,06,29,06,07,22.90
2021,06,29,06,08,22.90
2021,06,29,06,09,22.90
2021,06,29,06,10,22.90
2021,06,29,06,11,22.90
2021,06,29,06,12,22.90
2021,06,29,06,13,22.90
2021,06,29,06,14,22.90
2021,06,29,06,15,22.90
2021,06,29,06,16,22.90
2021,06,29,06,17,22.90
2021,06,29,06,18,22.90
2021,06,29,06,19,23.00
2021,06,29,06,20,23.00
2021,06,29,06,21,23.00
2021,06,29,06,22,23.00
2021,06,29,06,23,23.00
2021,06,29,06,24,23.00
2021,06,29,06,25,23.10
2021,06,29,06,26,23.10
2021,06,29,06,27,23.10
2021,06,29,06,28,23.10
2021,06,29,06,29,23.10
2021,06,29,06,30,23.10
2021,06,29,06,31,23.20
2021,06,29,06,32,23.20
2021,06,29,06,33,23.20
2021,06,29,06,34,23.20
2021,06,29,06,35,23.20
2021,06,29,06,36,23.30
2021,06,29,06,37,23.30
2021,06,29,06,38,23.30
2021,06,29,06,39,23.40
2021,06,29,06,40,23.40
2021,06,29,06,41,23.50
2021,06,29,06,42,23.50
2021,06,29,06,43,23.50
2021,06,29,06,44,23.60
2021,06,29,06,45,23.60
2021,06,29,06,46,23.60
2021,06,29,06,47,23.60
2021,06,29,06,48,23.60
2021,06,29,06,49,23.70
2021,06,29,06,50,23.70
2021,06,29,06,51,23.80
2021,06,29,06,52,23.90
2021,06,29,06,53,23.90
2021,06,29,06,54,24.00
2021,06,29,06,55,24.00
2021,06,29,06,56,24.10
2021,06,29,06,57,24.20
2021,06,29,06,58,24.30
2021,06,29,06,59,24.30
2021,06,29,07,00,24.40
2021,06,29,07,01,24.40
2021,06,29,07,02,24.40
2021,06,29,07,03,24.50
2021,06,29,07,04,24.50
2021,06,29,07,05,24.60
2021,06,29,07,06,24.70
2021,06,29,07,07,24.70
2021,06,29,07,08,24.80
2021,06,29,07,09,24.80
2021,06,29,07,10,24.80
2021,06,29,07,11,24.80
2021,06,29,07,12,24.90
2021,06,29,07,13,24.90
2021,06,29,07,14,24.90
2021,06,29,07,15,24.90
2021,06,29,07,16,24.90
2021,06,29,07,17,24.90
2021,06,29,07,18,24.90
2021,06,29,07,19,24.90
2021,06,29,07,20,24.90
2021,06,29,07,21,24.90
2021,06,29,07,22,24.90
2021,06,29,07,23,24.80
2021,06,29,07,24,24.80
2021,06,29,07,25,24.70
2021,06,29,07,26,24.60
2021,06,29,07,27,24.50
2021,06,29,07,28,24.40
2021,06,29,07,29,24.40
2021,06,29,07,30,24.40
2021,06,29,07,31,24.40
2021,06,29,07,32,24.40
2021,06,29,07,33,24.40
2021,06,29,07,34,24.40
2021,06,29,07,35,24.40
2021,06,29,07,36,24.40
2021,06,29,07,37,24.40
2021,06,29,07,38,24.40
2021,06,29,07,39,24.50
2021,06,29,07,40,24.60
2021,06,29,07,41,24.60
2021,06,29,07,42,24.70
2021,06,29,07,43,24.70
2021,06,29,07,44,24.80
2021,06,29,07,45,24.80
2021,06,29,07,46,24.90
2021,06,29,07,47,24.90
2021,06,29,07,48,25.00
2021,06,29,07,49,25.10
2021,06,29,07,50,25.10
2021,06,29,07,51,25.20
2021,06,29,07,52,25.20
2021,06,29,07,53,25.30
2021,06,29,07,54,25.40
2021,06,29,07,55,25.40
2021,06,29,07,56,25.50
2021,06,29,07,57,25.60
2021,06,29,07,58,25.70
2021,06,29,07,59,25.70
2021,06,29,08,00,25.80
2021,06,29,08,01,25.90
2021,06,29,08,02,26.00
2021,06,29,08,03,26.10
2021,06,29,08,04,26.10
2021,06,29,08,05,26.10
2021,06,29,08,06,26.10
2021,06,29,08,07,26.00
2021,06,29,08,08,26.00
2021,06,29,08,09,26.00
2021,06,29,08,10,25.90
2021,06,29,08,11,25.90
2021,06,29,08,12,25.90
2021,06,29,08,13,25.90
2021,06,29,08,14,25.90
2021,06,29,08,15,25.90
2021,06,29,08,16,25.90
2021,06,29,08,17,25.90
2021,06,29,08,18,25.80
2021,06,29,08,19,25.80
2021,06,29,08,20,25.80
2021,06,29,08,21,25.80
2021,06,29,08,22,25.80
2021,06,29,08,23,25.80
2021,06,29,08,24,25.90
2021,06,29,08,25,25.90
2021,06,29,08,26,25.90
2021,06,29,08,27,25.90
2021,06,29,08,28,25.90
2021,06,29,08,29,25.90
2021,06,29,08,30,25.90
2021,06,29,08,31,25.90
2021,06,29,08,32,25.90
2021,06,29,08,33,26.00
2021,06,29,08,34,26.00
2021,06,29,08,35,26.00
2021,06,29,08,36,26.10
2021,06,29,08,37,26.10
2021,06,29,08,38,26.10
2021,06,29,08,39,26.10
2021,06,29,08,40,26.10
2021,06,29,08,41,26.20
2021,06,29,08,42,26.20
2021,06,29,08,43,26.20
2021,06,29,08,44,26.20
2021,06,29,08,45,26.20
2021,06,29,08,46,26.20
2021,06,29,08,47,26.20
2021,06,29,08,48,26.20
2021,06,29,08,49,26.20
2021,06,29,08,50,26.20
2021,06,29,08,51,26.20
2021,06,29,08,52,26.20
2021,06,29,08,53,26.20
2021,06,29,08,54,26.20
2021,06,29,08,55,26.20
2021,06,29,08,56,26.10
2021,06,29,08,57,26.10
2021,06,29,08,58,26.10
2021,06,29,08,59,26.10
2021,06,29,09,00,26.20
2021,06,29,09,01,26.20
2021,06,29,09,02,26.20
2021,06,29,09,03,26.30
2021,06,29,09,04,26.30
2021,06,29,09,05,26.30
2021,06,29,09,06,26.40
2021,06,29,09,07,26.40
2021,06,29,09,08,26.50
2021,06,29,09,09,26.60
2021,06,29,09,10,26.60
2021,06,29,09,11,26.60
2021,06,29,09,12,26.60
2021,06,29,09,13,26.60
2021,06,29,09,14,26.60
2021,06,29,09,15,26.60
2021,06,29,09,16,26.50
2021,06,29,09,17,26.50
2021,06,29,09,18,26.50
2021,06,29,09,19,26.60
2021,06,29,09,20,26.60
2021,06,29,09,21,26.60
2021,06,29,09,22,26.60
2021,06,29,09,23,26.70
2021,06,29,09,24,26.80
2021,06,29,09,25,26.80
2021,06,29,09,26,26.90
2021,06,29,09,27,27.10
2021,06,29,09,28,27.20
2021,06,29,09,29,27.20
2021,06,29,09,30,27.30
2021,06,29,09,31,27.30
2021,06,29,09,32,27.40
2021,06,29,09,33,27.50
2021,06,29,09,34,27.50
2021,06,29,09,35,27.50
2021,06,29,09,36,27.40
2021,06,29,09,37,27.30
2021,06,29,09,38,27.20
2021,06,29,09,39,27.20
2021,06,29,09,40,27.20
2021,06,29,09,41,27.20
2021,06,29,09,42,27.20
2021,06,29,09,43,27.20
2021,06,29,09,44,27.30
2021,06,29,09,45,27.30
2021,06,29,09,46,27.40
2021,06,29,09,47,27.50
2021,06,29,09,48,27.60
2021,06,29,09,49,27.70
2021,06,29,09,50,27.70
2021,06,29,09,51,27.80
2021,06,29,09,52,27.80
2021,06,29,09,53,27.80
2021,06,29,09,54,27.80
2021,06,29,09,55,27.80
2021,06,29,09,56,27.80
2021,06,29,09,57,27.90
2021,06,29,09,58,27.90
2021,06,29,09,59,27.90
2021,06,29,10,00,28.00
2021,06,29,10,01,28.10
2021,06,29,10,02,28.20
2021,06,29,10,03,28.20
2021,06,29,10,04,28.10
2021,06,29,10,05,28.10
2021,06,29,10,06,28.00
2021,06,29,10,07,27.90
2021,06,29,10,08,27.90
2021,06,29,10,09,27.90
2021,06,29,10,10,28.00
2021,06,29,10,11,28.10
2021,06,29,10,12,28.20
2021,06,29,10,13,28.30
2021,06,29,10,14,28.40
2021,06,29,10,15,28.40
2021,06,29,10,16,28.50
2021,06,29,10,17,28.60
2021,06,29,10,18,28.60
2021,06,29,10,19,28.50
2021,06,29,10,20,28.50
2021,06,29,10,21,28.40
2021,06,29,10,22,28.40
2021,06,29,10,23,28.30
2021,06,29,10,24,28.30
2021,06,29,10,25,28.20
2021,06,29,10,26,28.20
2021,06,29,10,27,28.30
2021,06,29,10,28,28.30
2021,06,29,10,29,28.40
2021,06,29,10,30,28.40
2021,06,29,10,31,28.40
2021,06,29,10,32,28.50
2021,06,29,10,33,28.50
2021,06,29,10,34,28.50
2021,06,29,10,35,28.40
2021,06,29,10,36,28.40
2021,06,29,10,37,28.40
2021,06,29,10,38,28.30
2021,06,29,10,39,28.20
2021,06,29,10,40,28.20
2021,06,29,10,41,28.10
2021,06,29,10,42,28.00
2021,06,29,10,43,27.90
2021,06,29,10,44,27.90
2021,06,29,10,45,27.80
2021,06,29,10,46,27.80
2021,06,29,10,47,27.70
2021,06,29,10,48,27.60
2021,06,29,10,49,27.60
2021,06,29,10,50,27.60
2021,06,29,10,51,27.60
2021,06,29,10,52,27.60
2021,06,29,10,53,27.60
2021,06,29,10,54,27.60
2021,06,29,10,55,27.60
2021,06,29,10,56,27.70
2021,06,29,10,57,27.80
2021,06,29,10,58,27.80
2021,06,29,10,59,27.90
2021,06,29,11,00,28.10
2021,06,29,11,01,28.20
2021,06,29,11,02,28.20
2021,06,29,11,03,28.30
2021,06,29,11,04,28.40
2021,06,29,11,05,28.50
2021,06,29,11,06,28.60
2021,06,29,11,07,28.70
2021,06,29,11,08,28.70
2021,06,29,11,09,28.80
2021,06,29,11,10,28.80
2021,06,29,11,11,28.80
2021,06,29,11,12,28.80
2021,06,29,11,13,28.80
2021,06,29,11,14,28.80
2021,06,29,11,15,28.70
2021,06,29,11,16,28.70
2021,06,29,11,17,28.80
2021,06,29,11,18,28.80
2021,06,29,11,19,28.80
2021,06,29,11,20,28.80
2021,06,29,11,21,28.80
2021,06,29,11,22,28.80
2021,06,29,11,23,28.70
2021,06,29,11,24,28.70
2021,06,29,11,25,28.70
2021,06,29,11,26,28.70
2021,06,29,11,27,28.70
2021,06,29,11,28,28.70
2021,06,29,11,29,28.70
2021,06,29,11,30,28.70
2021,06,29,11,31,28.70
2021,06,29,11,32,28.80
2021,06,29,11,33,28.80
2021,06,29,11,34,28.80
2021,06,29,11,35,28.90
2021,06,29,11,36,28.90
2021,06,29,11,37,28.90
2021,06,29,11,38,28.80
2021,06,29,11,39,28.80
2021,06,29,11,40,28.70
2021,06,29,11,41,28.70
2021,06,29,11,42,28.70
2021,06,29,11,43,28.70
2021,06,29,11,44,28.60
2021,06,29,11,45,28.70
2021,06,29,11,46,28.70
2021,06,29,11,47,28.80
2021,06,29,11,48,28.80
2021,06,29,11,49,28.80
2021,06,29,11,50,28.80
2021,06,29,11,51,28.80
2021,06,29,11,52,28.70
2021,06,29,11,53,28.70
2021,06,29,11,54,28.80
2021,06,29,11,55,28.70
2021,06,29,11,56,28.70
2021,06,29,11,57,28.70
2021,06,29,11,58,28.70
2021,06,29,11,59,28.80
2021,06,29,12,00,28.80
2021,06,29,12,01,28.90
2021,06,29,12,02,28.90
2021,06,29,12,03,28.90
2021,06,29,12,04,28.90
2021,06,29,12,05,28.90
2021,06,29,12,06,28.90
2021,06,29,12,07,28.80
2021,06,29,12,08,28.80
2021,06,29,12,09,28.70
2021,06,29,12,10,28.80
2021,06,29,12,11,28.80
2021,06,29,12,12,28.80
2021,06,29,12,13,28.90
2021,06,29,12,14,28.90
2021,06,29,12,15,29.00
2021,06,29,12,16,29.00
2021,06,29,12,17,29.10
2021,06,29,12,18,29.20
2021,06,29,12,19,29.30
2021,06,29,12,20,29.40
2021,06,29,12,21,29.50
2021,06,29,12,22,29.60
2021,06,29,12,23,29.80
2021,06,29,12,24,29.90
2021,06,29,12,25,30.00
2021,06,29,12,26,30.10
2021,06,29,12,27,30.20
2021,06,29,12,28,30.20
2021,06,29,12,29,30.20
2021,06,29,12,30,30.10
2021,06,29,12,31,30.00
2021,06,29,12,32,29.90
2021,06,29,12,33,29.80
2021,06,29,12,34,29.80
2021,06,29,12,35,29.70
2021,06,29,12,36,29.80
2021,06,29,12,37,29.80
2021,06,29,12,38,29.90
2021,06,29,12,39,30.10
2021,06,29,12,40,30.20
2021,06,29,12,41,30.30
2021,06,29,12,42,30.40
2021,06,29,12,43,30.50
2021,06,29,12,44,30.60
2021,06,29,12,45,30.70
2021,06,29,12,46,30.70
2021,06,29,12,47,30.70
2021,06,29,12,48,30.80
2021,06,29,12,49,30.80
2021,06,29,12,50,30.80
2021,06,29,12,51,30.80
2021,06,29,12,52,30.70
2021,06,29,12,53,30.70
2021,06,29,12,54,30.70
2021,06,29,12,55,30.80
2021,06,29,12,56,30.90
2021,06,29,12,57,31.00
2021,06,29,12,58,30.90
2021,06,29,12,59,30.90
2021,06,29,13,00,30.80
2021,06,29,13,01,30.80
2021,06,29,13,02,30.70
2021,06,29,13,03,30.60
2021,06,29,13,04,30.60
2021,06,29,13,05,30.60
2021,06,29,13,06,30.70
2021,06,29,13,07,30.70
2021,06,29,13,08,30.70
2021,06,29,13,09,30.60
2021,06,29,13,10,30.60
2021,06,29,13,11,30.50
2021,06,29,13,12,30.40
2021,06,29,13,13,30.30
2021,06,29,13,14,30.30
2021,06,29,13,15,30.20
2021,06,29,13,16,30.10
2021,06,29,13,17,30.00
2021,06,29,13,18,29.80
2021,06,29,13,19,29.80
2021,06,29,13,20,29.70
2021,06,29,13,21,29.80
2021,06,29,13,22,29.80
2021,06,29,13,23,29.70
2021,06,29,13,24,29.80
2021,06,29,13,25,29.80
2021,06,29,13,26,29.90
2021,06,29,13,27,30.00
2021,06,29,13,28,30.10
2021,06,29,13,29,30.20
2021,06,29,13,30,30.40
2021,06,29,13,31,30.50
2021,06,29,13,32,30.60
2021,06,29,13,33,30.60
2021,06,29,13,34,30.60
2021,06,29,13,35,30.70
2021,06,29,13,36,30.80
2021,06,29,13,37,30.90
2021,06,29,13,38,30.90
2021,06,29,13,39,30.80
2021,06,29,13,40,30.70
2021,06,29,13,41,30.60
2021,06,29,13,42,30.60
2021,06,29,13,43,30.50
2021,06,29,13,44,30.50
2021,06,29,13,45,30.50
2021,06,29,13,46,30.50
2021,06,29,13,47,30.50
2021,06,29,13,48,30.40
2021,06,29,13,49,30.40
2021,06,29,13,50,30.40
2021,06,29,13,51,30.40
2021,06,29,13,52,30.30
2021,06,29,13,53,30.20
2021,06,29,13,54,30.20
2021,06,29,13,55,30.20
2021,06,29,13,56,30.20
2021,06,29,13,57,30.20
2021,06,29,13,58,30.20
2021,06,29,13,59,30.30
2021,06,29,14,00,30.20
2021,06,29,14,01,30.20
2021,06,29,14,02,30.20
2021,06,29,14,03,30.20
2021,06,29,14,04,30.20
2021,06,29,14,05,30.30
2021,06,29,14,06,30.30
2021,06,29,14,07,30.40
2021,06,29,14,08,30.50
2021,06,29,14,09,30.60
2021,06,29,14,10,30.60
2021,06,29,14,11,30.60
2021,06,29,14,12,30.70
2021,06,29,14,13,30.70
2021,06,29,14,14,30.70
2021,06,29,14,15,30.70
2021,06,29,14,16,30.60
2021,06,29,14,17,30.70
2021,06,29,14,18,30.60
2021,06,29,14,19,30.60
2021,06,29,14,20,30.60
2021,06,29,14,21,30.50
2021,06,29,14,22,30.50
2021,06,29,14,23,30.50
2021,06,29,14,24,30.60
2021,06,29,14,25,30.70
2021,06,29,14,26,30.80
2021,06,29,14,27,30.90
2021,06,29,14,28,31.00
2021,06,29,14,29,31.10
2021,06,29,14,30,31.10
2021,06,29,14,31,31.10
2021,06,29,14,32,31.10
2021,06,29,14,33,31.20
2021,06,29,14,34,31.30
2021,06,29,14,35,31.30
2021,06,29,14,36,31.40
2021,06,29,14,37,31.50
2021,06,29,14,38,31.50
2021,06,29,14,39,31.50
2021,06,29,14,40,31.50
2021,06,29,14,41,31.40
2021,06,29,14,42,31.40
2021,06,29,14,43,31.40
2021,06,29,14,44,31.40
2021,06,29,14,45,31.40
2021,06,29,14,46,31.40
2021,06,29,14,47,31.50
2021,06,29,14,48,31.40
2021,06,29,14,49,31.40
2021,06,29,14,50,31.30
2021,06,29,14,51,31.30
2021,06,29,14,52,31.40
2021,06,29,14,53,31.40
2021,06,29,14,54,31.40
2021,06,29,14,55,31.50
2021,06,29,14,56,31.40
2021,06,29,14,57,31.40
2021,06,29,14,58,31.40
2021,06,29,14,59,31.40
2021,06,29,15,00,31.40
2021,06,29,15,01,31.40
2021,06,29,15,02,31.40
2021,06,29,15,03,31.40
2021,06,29,15,04,31.40
2021,06,29,15,05,31.30
2021,06,29,15,06,31.30
2021,06,29,15,07,31.40
2021,06,29,15,08,31.40
2021,06,29,15,09,31.40
2021,06,29,15,10,31.40
2021,06,29,15,11,31.30
2021,06,29,15,12,31.30
2021,06,29,15,13,31.30
2021,06,29,15,14,31.30
2021,06,29,15,15,31.20
2021,06,29,15,16,31.20
2021,06,29,15,17,31.30
2021,06,29,15,18,31.30
2021,06,29,15,19,31.30
2021,06,29,15,20,31.30
2021,06,29,15,21,31.30
2021,06,29,15,22,31.30
2021,06,29,15,23,31.30
2021,06,29,15,24,31.20
2021,06,29,15,25,31.20
2021,06,29,15,26,31.10
2021,06,29,15,27,31.20
2021,06,29,15,28,31.20
2021,06,29,15,29,31.10
2021,06,29,15,30,31.10
2021,06,29,15,31,31.20
2021,06,29,15,32,31.10
2021,06,29,15,33,31.00
2021,06,29,15,34,31.00
2021,06,29,15,35,31.00
2021,06,29,15,36,31.00
2021,06,29,15,37,31.00
2021,06,29,15,38,30.90
2021,06,29,15,39,31.00
2021,06,29,15,40,31.10
2021,06,29,15,41,31.10
2021,06,29,15,42,31.10
2021,06,29,15,43,31.00
2021,06,29,15,44,31.00
2021,06,29,15,45,31.00
2021,06,29,15,46,31.00
2021,06,29,15,47,31.10
2021,06,29,15,48,31.00
2021,06,29,15,49,30.90
2021,06,29,15,50,30.80
2021,06,29,15,51,30.80
2021,06,29,15,52,30.70
2021,06,29,15,53,30.80
2021,06,29,15,54,30.80
2021,06,29,15,55,30.90
2021,06,29,15,56,30.90
2021,06,29,15,57,30.80
2021,06,29,15,58,30.70
2021,06,29,15,59,30.60
2021,06,29,16,00,30.50
2021,06,29,16,01,30.40
2021,06,29,16,02,30.40
2021,06,29,16,03,30.40
2021,06,29,16,04,30.40
2021,06,29,16,05,30.40
2021,06,29,16,06,30.50
2021,06,29,16,07,30.60
2021,06,29,16,08,30.70
2021,06,29,16,09,30.70
2021,06,29,16,10,30.80
2021,06,29,16,11,30.80
2021,06,29,16,12,30.80
2021,06,29,16,13,30.80
2021,06,29,16,14,30.70
2021,06,29,16,15,30.70
2021,06,29,16,16,30.70
2021,06,29,16,17,30.70
2021,06,29,16,18,30.80
2021,06,29,16,19,30.80
2021,06,29,16,20,30.90
2021,06,29,16,21,31.00
2021,06,29,16,22,31.10
2021,06,29,16,23,31.20
2021,06,29,16,24,31.30
2021,06,29,16,25,31.30
2021,06,29,16,26,31.30
2021,06,29,16,27,31.40
2021,06,29,16,28,31.30
2021,06,29,16,29,31.20
2021,06,29,16,30,31.10
2021,06,29,16,31,31.00
2021,06,29,16,32,30.90
2021,06,29,16,33,30.90
2021,06,29,16,34,30.80
2021,06,29,16,35,30.80
2021,06,29,16,36,30.80
2021,06,29,16,37,30.90
2021,06,29,16,38,30.90
2021,06,29,16,39,30.90
2021,06,29,16,40,30.90
2021,06,29,16,41,30.90
2021,06,29,16,42,30.90
2021,06,29,16,43,30.90
2021,06,29,16,44,30.90
2021,06,29,16,45,30.90
2021,06,29,16,46,30.80
2021,06,29,16,47,30.80
2021,06,29,16,48,30.70
2021,06,29,16,49,30.70
2021,06,29,16,50,30.70
2021,06,29,16,51,30.70
2021,06,29,16,52,30.60
2021,06,29,16,53,30.60
2021,06,29,16,54,30.50
2021,06,29,16,55,30.40
2021,06,29,16,56,30.40
2021,06,29,16,57,30.40
2021,06,29,16,58,30.40
2021,06,29,16,59,30.40
2021,06,29,17,00,30.40
2021,06,29,17,01,30.30
2021,06,29,17,02,30.30
2021,06,29,17,03,30.30
2021,06,29,17,04,30.30
2021,06,29,17,05,30.30
2021,06,29,17,06,30.30
2021,06,29,17,07,30.40
2021,06,29,17,08,30.40
2021,06,29,17,09,30.30
2021,06,29,17,10,30.20
2021,06,29,17,11,30.20
2021,06,29,17,12,30.20
2021,06,29,17,13,30.20
2021,06,29,17,14,30.20
2021,06,29,17,15,30.20
2021,06,29,17,16,30.20
2021,06,29,17,17,30.10
2021,06,29,17,18,30.10
2021,06,29,17,19,30.00